Weather in Panfilovo

Russia / Vladimir Oblast     55°30′58″N   42°04′47″E
temp.,
°C
wind,
m/s
gust,
m/s
humid.,
%
clouds,
%
prec.,
mm/h
press.,
hPa
HPBL,
m
28 february, sun
sun2800:00−14nnw3396100 0.0 101257
03:00−15nnw339692 0.1 101453
06:00−13nnw239699 0.1 101450
09:00−11nnw359492 0.1 1015264
12:00−9nnw3488100 0.1 1015511
15:00−7n3488100 0.2 1016607
18:00−9n2292100 0.1 101722
21:00−11nne2296100 0.1 101921
1 march, mon
mon100:00−13nne1198100 0.1 102121
03:00−13nw129684 0.1 102221
06:00−13wnw229694 0.0 102321
09:00−9wsw249496 0.1 1024107
12:00−4wsw469295 0.0 1023410
15:00−2wsw578896 0.1 1021695
18:00−3wsw51093100 0.1 1018524
21:00−1wsw51194100 0.1 1016546
2 march, tue
tue200:00+1wsw61296100 0.3 1012583
03:00+1w71398100 0.4 1009645
06:000w61297100 0.1 1006643
09:00+1wnw61198100 0.8 1006614
12:00+1nw6119585 0.3 1005919
15:00+1nw6118982 0.4 1005916
18:000nw5128687 0.1 1005637
21:00−1nw4119393 0.2 1007563
3 march, wed
wed300:00−3nw51294100 0.2 1007468
03:00−4nw5129296 0.3 1009522
06:00−5nw4119496 0.1 1010361
09:00−4nw6119093 0.1 1012658
12:00−2nnw6108177 0.0 1013941
15:00−1nw588054 0.1 10141070
18:00−5nw5118863 0.1 1014327
21:00−8w479150 0.1 1016126
4 march, thu
thu400:00−8wsw479312 0.0 1014129
03:00−7wsw5109315 0.0 1012245
06:00−5sw6149294 0.0 1008469
09:00−2sw8169097 0.0 1005574
12:00+1wsw81586100 0.0 10021020
15:00+1wsw71387100 0.0 10011094
18:000wsw61387100 0.0 1000818
21:00−1wsw71392100 0.0 1001551